This demonstration page uses our WeatherBlox Daily Observations layout. Learn more.

Left ArrowRight Arrow

47.50024, -111.30081

Hourly Observations for November 8, 2015

Temp ( °F °C ) Dew Point ( °F °C ) Humidity (%) Winds ( mph kmh ) Pressure ( in mb ) Visibility ( mi km ) Precip ( " mm )
12:53 am 00:53 Clear 43 6.1 21 -6.1 42 42 SSW 18 30 29.89 1012 10 16 0.00 0.00
1:53 am 01:53 Clear 43 6.1 21 -6.1 42 42 SSW 23 37 29.87 1011 10 16 0.00 0.00
2:53 am 02:53 Clear 41 5 21 -6.1 45 45 SSW 17 28 29.88 1012 10 16 0.00 0.00
3:53 am 03:53 Clear 42 5.6 21 -6.1 43 43 SSW 18 30 29.87 1012 10 16 0.00 0.00
4:53 am 04:53 Clear 41 5 21 -6.1 45 45 SSW 13 20 29.89 1012 10 16 0.00 0.00
5:53 am 05:53 Clear 40 4.4 21 -6.1 47 47 S 15 24 29.88 1012 10 16 0.00 0.00
6:53 am 06:53 Clear 40 4.4 20 -6.7 45 45 SSW 17 28 29.87 1012 10 16 0.00 0.00
7:53 am 07:53 Sunny 43 6.1 21 -6.1 42 42 SSW 14 22 29.88 1012 10 16 0.00 0.00
8:53 am 08:53 Sunny 46 7.8 23 -5 40 40 S 16 26 29.86 1011 10 16 0.00 0.00
9:53 am 09:53 Sunny 49 9.4 22 -5.6 35 35 SSW 26 43 29.84 1010 10 16 0.00 0.00
10:53 am 10:53 Sunny 50 10 24 -4.4 36 36 SW 22 35 29.83 1010 10 16 0.00 0.00
11:53 am 11:53 Sunny 55 12.8 24 -4.4 30 30 SW 18 30 29.80 1009 10 16 0.00 0.00
12:53 pm 12:53 Sunny 57 13.9 22 -5.6 26 26 SSW 25 41 29.77 1008 10 16 0.00 0.00
1:53 pm 13:53 Sunny 56 13.3 23 -5 28 28 SSW 23 37 29.76 1008 10 16 0.00 0.00
2:53 pm 14:53 Sunny 54 12.2 23 -5 30 30 SW 18 30 29.77 1008 10 16 0.00 0.00
3:53 pm 15:53 Sunny 54 12.2 24 -4.4 31 31 SSW 17 28 29.78 1009 10 16 0.00 0.00
4:53 pm 16:53 Sunny 48 8.9 25 -3.9 41 41 SSW 8 13 29.81 1010 10 16 0.00 0.00
5:53 pm 17:53 Clear 43 6.1 24 -4.4 47 47 ENE 7 11 29.84 1010 10 16 0.00 0.00
6:53 pm 18:53 Clear 45 7.2 25 -3.9 46 46 S 10 17 29.83 1010 10 16 0.00 0.00
7:53 pm 19:53 Clear 46 7.8 24 -4.4 42 42 S 13 20 29.81 1010 10 16 0.00 0.00
8:53 pm 20:53 Clear 41 5 24 -4.4 51 51 S 7 11 29.83 1010 10 16 0.00 0.00
9:53 pm 21:53 Clear 41 5 24 -4.4 51 51 S 13 20 29.82 1010 10 16 0.00 0.00
10:53 pm 22:53 Clear 42 5.6 24 -4.4 49 49 SSW 13 20 29.83 1010 10 16 0.00 0.00
11:53 pm 23:53 Clear 43 6.1 24 -4.4 47 47 S 14 22 29.80 1009 10 16 0.00 0.00

Powered by AerisWeather